• In United Kingdom
  • List of Countries
  • For 7 days
  • Water Temperature
  • Satellite Maps
  • Weather Map
  • Weather Widgets
  • user-avatar
    Login

    Hourly Weather Andora

    Today, 22 July, Saturday

    Time Temperature Precipitation Wind Pressure Humidity
    00:00 +10°C° 0 mm 0 mps 625 mmHg 92%
    01:00 +11°C° 0 mm 1 mps 624 mmHg 93%
    02:00 +11°C° 0 mm 1 mps 624 mmHg 93%
    03:00 +11°C° 0 mm 1 mps 624 mmHg 93%
    04:00 +12°C° 0 mm 1 mps 625 mmHg 91%
    05:00 +12°C° 0 mm 1 mps 625 mmHg 88%
    06:00 +14°C° 0 mm 1 mps 626 mmHg 85%
    07:00 +16°C° 0 mm 2 mps 627 mmHg 74%
    08:00 +17°C° 0 mm 2 mps 627 mmHg 64%
    09:00 +19°C° 0 mm 3 mps 628 mmHg 53%
    10:00 +20°C° 0 mm 3 mps 628 mmHg 49%
    11:00 +22°C° 0 mm 4 mps 629 mmHg 44%
    12:00 +23°C° 0 mm 4 mps 629 mmHg 40%
    13:00 +23°C° 0.1 mm 4 mps 629 mmHg 41%
    14:00 +22°C° 0.1 mm 4 mps 629 mmHg 43%
    15:00 +22°C° 0.1 mm 4 mps 629 mmHg 44%
    16:00 +21°C° 0.2 mm 3 mps 628 mmHg 50%
    17:00 +20°C° 0.2 mm 3 mps 628 mmHg 56%
    18:00 +19°C° 0.2 mm 2 mps 628 mmHg 61%
    19:00 +17°C° 0.1 mm 2 mps 628 mmHg 70%
    20:00 +16°C° 0.1 mm 2 mps 628 mmHg 80%
    21:00 +14°C° 0.1 mm 1 mps 627 mmHg 89%
    22:00 +13°C° 0 mm 1 mps 628 mmHg 90%
    23:00 +13°C° 0 mm 1 mps 628 mmHg 90%

    Tomorrow, 23 July, Sunday

    Time Temperature Precipitation Wind Pressure Humidity
    00:00 +13°C° 0 mm 1 mps 628 mmHg 91%
    01:00 +13°C° 0 mm 1 mps 628 mmHg 92%
    02:00 +12°C° 0 mm 1 mps 628 mmHg 92%
    03:00 +12°C° 0 mm 1 mps 628 mmHg 93%
    04:00 +13°C° 0 mm 1 mps 628 mmHg 92%
    05:00 +13°C° 0 mm 1 mps 629 mmHg 91%
    06:00 +13°C° 0 mm 1 mps 629 mmHg 89%
    07:00 +15°C° 0 mm 1 mps 630 mmHg 80%
    08:00 +17°C° 0 mm 2 mps 630 mmHg 71%
    09:00 +18°C° 0 mm 2 mps 631 mmHg 62%
    10:00 +20°C° 0 mm 3 mps 631 mmHg 56%
    11:00 +21°C° 0 mm 3 mps 632 mmHg 50%
    12:00 +22°C° 0 mm 3 mps 632 mmHg 44%
    13:00 +22°C° 0.1 mm 3 mps 632 mmHg 45%
    14:00 +22°C° 0.1 mm 3 mps 631 mmHg 46%
    15:00 +22°C° 0.1 mm 4 mps 631 mmHg 48%
    16:00 +20°C° 1.5 mm 3 mps 630 mmHg 58%
    17:00 +18°C° 1.5 mm 2 mps 630 mmHg 68%
    18:00 +17°C° 1.5 mm 2 mps 629 mmHg 77%
    19:00 +15°C° 0.3 mm 2 mps 629 mmHg 83%
    20:00 +14°C° 0.3 mm 1 mps 628 mmHg 88%
    21:00 +13°C° 0.3 mm 1 mps 628 mmHg 94%
    22:00 +12°C° 0.1 mm 1 mps 628 mmHg 94%
    23:00 +12°C° 0.1 mm 1 mps 628 mmHg 94%

    Day after tomorrow, 24 July, Monday

    Time Temperature Precipitation Wind Pressure Humidity
    00:00 +12°C° 0.1 mm 1 mps 628 mmHg 94%
    01:00 +12°C° 0.1 mm 1 mps 627 mmHg 95%
    02:00 +12°C° 0.1 mm 1 mps 627 mmHg 95%
    03:00 +11°C° 0.1 mm 1 mps 627 mmHg 95%
    04:00 +11°C° 0 mm 1 mps 627 mmHg 93%
    05:00 +12°C° 0 mm 2 mps 627 mmHg 91%
    06:00 +12°C° 0 mm 2 mps 627 mmHg 88%
    07:00 +13°C° 0.1 mm 2 mps 627 mmHg 81%
    08:00 +14°C° 0.1 mm 2 mps 628 mmHg 74%
    09:00 +16°C° 0.1 mm 2 mps 628 mmHg 66%
    10:00 +17°C° 0.1 mm 3 mps 629 mmHg 61%
    11:00 +18°C° 0.1 mm 3 mps 629 mmHg 55%
    12:00 +19°C° 0.1 mm 3 mps 629 mmHg 49%
    13:00 +19°C° 0 mm 3 mps 629 mmHg 48%
    14:00 +19°C° 0 mm 3 mps 629 mmHg 47%
    15:00 +19°C° 0 mm 4 mps 629 mmHg 46%
    16:00 +18°C° 0 mm 3 mps 628 mmHg 50%
    17:00 +17°C° 0 mm 3 mps 628 mmHg 54%
    18:00 +16°C° 0 mm 3 mps 628 mmHg 57%
    19:00 +13°C° 0 mm 3 mps 627 mmHg 64%
    20:00 +11°C° 0 mm 3 mps 627 mmHg 71%
    21:00 +10°C° 0 mm 3 mps 627 mmHg 78%
    22:00 +9°C° 0 mm 3 mps 626 mmHg 80%
    23:00 +8°C° 0 mm 2 mps 626 mmHg 81%

    25 July, Tuesday

    Time Temperature Precipitation Wind Pressure Humidity
    00:00 +8°C° 0 mm 2 mps 626 mmHg 82%
    01:00 +7°C° 0 mm 2 mps 625 mmHg 82%
    02:00 +7°C° 0 mm 2 mps 625 mmHg 82%
    03:00 +7°C° 0 mm 3 mps 625 mmHg 81%
    04:00 +7°C° 0 mm 3 mps 625 mmHg 77%
    05:00 +8°C° 0 mm 3 mps 625 mmHg 73%
    06:00 +8°C° 0 mm 3 mps 625 mmHg 69%
    07:00 +10°C° 0 mm 3 mps 626 mmHg 62%
    08:00 +12°C° 0 mm 3 mps 627 mmHg 54%
    09:00 +16°C° 0 mm 3 mps 627 mmHg 47%
    10:00 +17°C° 0 mm 3 mps 628 mmHg 45%
    11:00 +18°C° 0 mm 3 mps 628 mmHg 43%
    12:00 +19°C° 0 mm 4 mps 628 mmHg 41%
    13:00 +19°C° 0 mm 4 mps 628 mmHg 41%
    14:00 +19°C° 0 mm 4 mps 627 mmHg 42%
    15:00 +19°C° 0 mm 4 mps 627 mmHg 42%
    16:00 +18°C° 0.1 mm 3 mps 627 mmHg 49%
    17:00 +16°C° 0.1 mm 3 mps 626 mmHg 55%
    18:00 +14°C° 0.1 mm 3 mps 626 mmHg 61%
    19:00 +12°C° 0.2 mm 3 mps 625 mmHg 69%
    20:00 +11°C° 0.2 mm 3 mps 625 mmHg 77%
    21:00 +9°C° 0.2 mm 2 mps 625 mmHg 86%
    22:00 +9°C° 0.1 mm 2 mps 625 mmHg 86%
    23:00 +8°C° 0.1 mm 2 mps 625 mmHg 86%

    26 July, Wednesday

    Time Temperature Precipitation Wind Pressure Humidity
    00:00 +8°C° 0.1 mm 2 mps 624 mmHg 86%
    01:00 +7°C° 0 mm 3 mps 624 mmHg 86%
    02:00 +7°C° 0 mm 3 mps 624 mmHg 86%
    03:00 +7°C° 0 mm 3 mps 623 mmHg 85%
    04:00 +7°C° 0 mm 2 mps 624 mmHg 82%
    05:00 +7°C° 0 mm 2 mps 624 mmHg 78%
    06:00 +8°C° 0 mm 2 mps 624 mmHg 74%
    07:00 +10°C° 0 mm 2 mps 625 mmHg 64%
    08:00 +14°C° 0 mm 2 mps 626 mmHg 54%
    09:00 +16°C° 0 mm 2 mps 627 mmHg 44%
    10:00 +17°C° 0 mm 3 mps 628 mmHg 41%
    11:00 +18°C° 0 mm 3 mps 628 mmHg 39%
    12:00 +20°C° 0 mm 3 mps 628 mmHg 36%
    13:00 +20°C° 0 mm 3 mps 628 mmHg 36%
    14:00 +20°C° 0 mm 3 mps 628 mmHg 36%
    15:00 +20°C° 0 mm 3 mps 628 mmHg 37%
    16:00 +19°C° 0 mm 3 mps 627 mmHg 42%
    17:00 +18°C° 0 mm 3 mps 627 mmHg 48%
    18:00 +17°C° 0 mm 3 mps 626 mmHg 53%
    19:00 +14°C° 0 mm 3 mps 626 mmHg 62%
    20:00 +13°C° 0 mm 2 mps 626 mmHg 71%
    21:00 +10°C° 0 mm 2 mps 625 mmHg 80%
    22:00 +10°C° 0 mm 2 mps 625 mmHg 79%
    23:00 +9°C° 0 mm 2 mps 625 mmHg 78%

    27 July, Thursday

    Time Temperature Precipitation Wind Pressure Humidity
    00:00 +9°C° 0 mm 2 mps 625 mmHg 77%
    01:00 +9°C° 0 mm 2 mps 625 mmHg 75%
    02:00 +9°C° 0 mm 2 mps 625 mmHg 73%
    03:00 +9°C° 0 mm 2 mps 625 mmHg 71%
    04:00 +10°C° 0 mm 2 mps 625 mmHg 69%
    05:00 +10°C° 0 mm 2 mps 626 mmHg 67%
    06:00 +12°C° 0 mm 1 mps 626 mmHg 66%
    07:00 +15°C° 0 mm 1 mps 627 mmHg 58%
    08:00 +18°C° 0 mm 1 mps 629 mmHg 51%
    09:00 +21°C° 0 mm 1 mps 630 mmHg 44%
    10:00 +22°C° 0 mm 1 mps 630 mmHg 42%
    11:00 +23°C° 0 mm 1 mps 630 mmHg 40%
    12:00 +25°C° 0 mm 2 mps 631 mmHg 37%
    13:00 +25°C° 0 mm 2 mps 630 mmHg 38%
    14:00 +25°C° 0 mm 2 mps 630 mmHg 39%
    15:00 +25°C° 0 mm 2 mps 630 mmHg 39%
    16:00 +24°C° 0 mm 2 mps 630 mmHg 44%
    17:00 +23°C° 0 mm 1 mps 629 mmHg 48%
    18:00 +22°C° 0 mm 1 mps 629 mmHg 53%
    19:00 +20°C° 0 mm 1 mps 629 mmHg 60%
    20:00 +18°C° 0 mm 1 mps 628 mmHg 67%
    21:00 +15°C° 0 mm 1 mps 628 mmHg 74%
    22:00 +14°C° 0 mm 1 mps 628 mmHg 75%
    23:00 +14°C° 0 mm 1 mps 628 mmHg 75%
    Show more